Weather History for Naples, Italy

Change the Weather History Date:

Monday, November 5, 2012

  Actual Average Record
Temperature  
Mean Temperature 68 °F -  
Max Temperature 73 °F 62 °F 75 °F (2014)
Min Temperature 62 °F 45 °F 37 °F (2006)
Cooling Degree Days 2    
Growing Degree Days 18 (Base 50)    
Moisture  
Dew Point 63 °F    
Average Humidity 81    
Maximum Humidity 88    
Minimum Humidity 72    
Precipitation  
Precipitation 0.00 in 0.20 in - ()
Sea Level Pressure  
Sea Level Pressure 29.82 in    
Wind  
Wind Speed 10 mph ()    
Max Wind Speed 15 mph    
Max Gust Speed -    
Visibility 5.7 miles    
Events Rain    
Averages and records for this station are not official NWS values.
T = Trace of Precipitation, MM = Missing Value Source: Averaged Metar Reports

Daily Weather History Graph

Daily Weather History Graph

Search for Another Location

Airport:

Trip Planner

Search our weather history database for the weather conditions in past years. The results will help you decide how hot, cold, wet, or windy it might be!

Date:

Astronomy

Nov. 05, 2012 Rise Set
Actual Time 6:38 AM CET 4:53 PM CET
Civil Twilight 6:09 AM CET 5:22 PM CET
Nautical Twilight 5:37 AM CET 5:55 PM CET
Astronomical Twilight 5:04 AM CET 6:27 PM CET
Moon 10:13 PM CET (11/5) 11:48 AM CET (11/5)
Length of Visible Light 11h 13m
Length of Day
10h 15m
Waning Gibbous, 65% of the Moon is Illuminated
Nov 5
Waning Gibbous
Nov 7
Last Quarter
Nov 13
New
Nov 20
First Quarter
Nov 28
Full

Hourly Weather History & Observations

Time (CET) Temp. Dew Point Humidity Pressure Visibility Wind Dir Wind Speed Gust Speed Precip Events Conditions
12:20 AM 69.8 °F 62.6 °F 78% 29.86 in 5.0 mi South 11.5 mph - N/A   Mostly Cloudy
12:50 AM 69.8 °F 62.6 °F 78% 29.86 in 5.0 mi South 12.7 mph - N/A Rain Light Rain
1:20 AM 68.0 °F 64.4 °F 88% 29.86 in 2.5 mi South 11.5 mph - N/A Rain Light Rain
1:50 AM 68.0 °F 64.4 °F 88% 29.83 in 1.9 mi South 12.7 mph - N/A Rain Rain
2:20 AM 68.0 °F 64.4 °F 88% 29.83 in 5.0 mi South 15.0 mph - N/A   Mostly Cloudy
2:50 AM 68.0 °F 64.4 °F 88% 29.80 in 5.0 mi South 10.4 mph - N/A   Mostly Cloudy
3:20 AM 69.8 °F 64.4 °F 83% 29.80 in 5.0 mi South 10.4 mph - N/A   Mostly Cloudy
4:50 AM 71.6 °F 66.2 °F 83% 29.80 in 5.0 mi SSW 13.8 mph - N/A   Mostly Cloudy
5:20 AM 71.6 °F 66.2 °F 83% 29.77 in 5.0 mi South 13.8 mph - N/A   Mostly Cloudy
6:20 AM 71.6 °F 66.2 °F 83% 29.77 in 6.2 mi South 11.5 mph - N/A   Mostly Cloudy
6:50 AM 71.6 °F 66.2 °F 83% 29.77 in 6.2 mi SSW 11.5 mph - N/A   Mostly Cloudy
7:20 AM 71.6 °F 66.2 °F 83% 29.80 in 6.2 mi SSW 11.5 mph - N/A   Mostly Cloudy
7:50 AM 73.4 °F 66.2 °F 78% 29.80 in 6.2 mi South 12.7 mph - N/A   Mostly Cloudy
8:20 AM 73.4 °F 66.2 °F 78% 29.80 in 6.2 mi SSW 10.4 mph - N/A   Mostly Cloudy
8:50 AM 73.4 °F 68.0 °F 83% 29.77 in 6.2 mi SSW 11.5 mph - N/A   Mostly Cloudy
9:20 AM 73.4 °F 68.0 °F 83% 29.77 in 6.2 mi South 12.7 mph - N/A   Mostly Cloudy
9:50 AM 73.4 °F 68.0 °F 83% 29.80 in 6.2 mi South 9.2 mph - N/A   Mostly Cloudy
10:20 AM 71.6 °F 68.0 °F 88% 29.80 in 6.2 mi South 9.2 mph - N/A   Mostly Cloudy
11:20 AM 71.6 °F 68.0 °F 88% 29.80 in 6.2 mi SSW 10.4 mph - N/A   Mostly Cloudy
11:50 AM 73.4 °F 68.0 °F 83% 29.77 in 6.2 mi South 10.4 mph - N/A   Mostly Cloudy
12:20 PM 73.4 °F 68.0 °F 83% 29.77 in 6.2 mi SSW 8.1 mph - N/A   Mostly Cloudy
12:50 PM 73.4 °F 68.0 °F 83% 29.77 in 6.2 mi South 10.4 mph - N/A   Mostly Cloudy
1:20 PM 71.6 °F 68.0 °F 88% 29.77 in 6.2 mi South 10.4 mph - N/A   Mostly Cloudy
1:50 PM 71.6 °F 66.2 °F 83% 29.77 in 5.0 mi SSW 8.1 mph - N/A   Mostly Cloudy
2:20 PM 73.4 °F 68.0 °F 83% 29.77 in 6.2 mi SW 8.1 mph - N/A   Mostly Cloudy
2:50 PM 73.4 °F 66.2 °F 78% 29.77 in 6.2 mi SSW 8.1 mph - N/A   Mostly Cloudy
3:20 PM 71.6 °F 68.0 °F 88% 29.77 in 6.2 mi South 6.9 mph - N/A   Mostly Cloudy
3:50 PM 73.4 °F 66.2 °F 78% 29.77 in 6.2 mi SW 6.9 mph - N/A   Mostly Cloudy
4:20 PM 71.6 °F 66.2 °F 83% 29.77 in 6.2 mi WSW 10.4 mph - N/A   Mostly Cloudy
4:50 PM 71.6 °F 66.2 °F 83% 29.80 in 6.2 mi WSW 11.5 mph - N/A   Mostly Cloudy
5:20 PM 69.8 °F 64.4 °F 83% 29.80 in 6.2 mi WNW 13.8 mph - N/A   Mostly Cloudy
5:50 PM 68.0 °F 62.6 °F 83% 29.83 in 6.2 mi West 10.4 mph - N/A   Scattered Clouds
6:20 PM 68.0 °F 60.8 °F 78% 29.83 in 6.2 mi West 11.5 mph - N/A   Scattered Clouds
6:50 PM 66.2 °F 59.0 °F 78% 29.83 in - WSW 11.5 mph - N/A   Clear
7:20 PM 66.2 °F 57.2 °F 73% 29.86 in - West 8.1 mph - N/A   Clear
7:50 PM 66.2 °F 57.2 °F 73% 29.86 in - WSW 6.9 mph - N/A   Clear
8:20 PM 66.2 °F 57.2 °F 73% 29.89 in - Variable 3.5 mph - N/A   Clear
8:50 PM 64.4 °F 55.4 °F 73% 29.89 in - SW 3.5 mph - N/A   Clear
9:20 PM 64.4 °F 55.4 °F 73% 29.92 in - West 6.9 mph - N/A   Clear
9:50 PM 64.4 °F 55.4 °F 73% 29.92 in - WNW 9.2 mph - N/A   Clear
10:20 PM 64.4 °F 55.4 °F 73% 29.92 in - West 9.2 mph - N/A   Clear
10:50 PM 62.6 °F 53.6 °F 72% 29.92 in - West 6.9 mph - N/A   Clear
11:20 PM 62.6 °F 53.6 °F 72% 29.92 in - West 9.2 mph - N/A   Clear
11:50 PM 62.6 °F 53.6 °F 72% 29.95 in 6.2 mi West 8.1 mph - N/A   Partly Cloudy